Weather History for Pecos, TX

Change the Weather History Date:

Wednesday, September 18, 2013

  Actual Average Record
Temperature  
Mean Temperature 80 °F -  
Max Temperature 91 °F 90 °F 104 °F (1947)
Min Temperature 69 °F 61 °F 45 °F (1968)
Cooling Degree Days 15    
Growing Degree Days 30 (Base 50)    
Moisture  
Dew Point 62 °F    
Average Humidity 58    
Maximum Humidity 78    
Minimum Humidity 34    
Precipitation  
Precipitation 0.00 in - - ()
Sea Level Pressure  
Sea Level Pressure 29.97 in    
Wind  
Wind Speed 13 mph (ESE)    
Max Wind Speed 20 mph    
Max Gust Speed 26 mph    
Visibility 10 miles    
Events      
Averages and records for this station are not official NWS values.
T = Trace of Precipitation, MM = Missing Value Source: NWS Daily Summary

Daily Weather History Graph

Daily Weather History Graph

Search for Another Location

Airport:

Trip Planner

Search our weather history database for the weather conditions in past years. The results will help you decide how hot, cold, wet, or windy it might be!

Date:

Astronomy

Sep. 18, 2013 Rise Set
Actual Time 7:40 AM CDT 7:55 PM CDT
Civil Twilight 7:15 AM CDT 8:19 PM CDT
Nautical Twilight 6:47 AM CDT 8:48 PM CDT
Astronomical Twilight 6:18 AM CDT 9:16 PM CDT
Moon 7:21 PM CDT (9/18) 6:46 AM CDT (9/18)
Length of Visible Light 13h 03m
Length of Day
12h 15m
Waxing Gibbous, 99% of the Moon is Illuminated
Sep 18
Waxing Gibbous
Sep 19
Full
Sep 26
Last Quarter
Oct 4
New
Oct 11
First Quarter

Hourly Weather History & Observations

Time (CDT) Temp. Heat Index Dew Point Humidity Pressure Visibility Wind Dir Wind Speed Gust Speed Precip Events Conditions
12:15 AM 75.2 °F - 62.2 °F 64% 30.04 in 10.0 mi SE 16.1 mph 23.0 mph N/A   Scattered Clouds
12:35 AM 74.7 °F - 62.2 °F 65% 30.04 in 10.0 mi SE 12.7 mph - N/A   Clear
12:55 AM 74.1 °F - 63.0 °F 68% 30.04 in 10.0 mi SE 15.0 mph 21.9 mph N/A   Clear
1:15 AM 73.8 °F - 63.7 °F 71% 30.04 in 10.0 mi ESE 9.2 mph 18.4 mph N/A   Scattered Clouds
1:35 AM 73.4 °F - 64.2 °F 73% 30.04 in 10.0 mi ESE 11.5 mph - N/A   Clear
1:55 AM 73.4 °F - 64.0 °F 72% 30.05 in 10.0 mi East 11.5 mph - N/A   Clear
2:15 AM 73.0 °F - 62.6 °F 70% 30.04 in 10.0 mi ESE 10.4 mph 17.3 mph N/A   Clear
2:35 AM 72.9 °F - 62.1 °F 69% 30.04 in 10.0 mi ESE 10.4 mph - N/A   Clear
2:55 AM 72.9 °F - 62.2 °F 69% 30.04 in 10.0 mi ESE 9.2 mph - N/A   Clear
3:15 AM 72.5 °F - 62.6 °F 71% 30.03 in 10.0 mi ESE 9.2 mph - N/A   Clear
3:35 AM 72.5 °F - 62.6 °F 71% 30.02 in 10.0 mi ESE 9.2 mph - N/A   Scattered Clouds
3:55 AM 72.1 °F - 62.8 °F 72% 30.01 in 10.0 mi East 8.1 mph - N/A   Scattered Clouds
4:15 AM 71.8 °F - 62.8 °F 73% 30.00 in 10.0 mi East 9.2 mph - N/A   Clear
4:35 AM 71.2 °F - 63.0 °F 75% 29.99 in 10.0 mi ESE 9.2 mph - N/A   Clear
4:55 AM 70.7 °F - 63.0 °F 76% 29.99 in 10.0 mi East 8.1 mph - N/A   Clear
5:15 AM 70.0 °F - 63.0 °F 78% 29.99 in 10.0 mi East 8.1 mph - N/A   Clear
5:35 AM 69.8 °F - 62.8 °F 78% 29.98 in 10.0 mi East 9.2 mph - N/A   Clear
5:55 AM 69.8 °F - 62.6 °F 78% 29.98 in 10.0 mi ESE 10.4 mph - N/A   Clear
6:15 AM 69.8 °F - 62.6 °F 78% 29.98 in 10.0 mi ESE 12.7 mph - N/A   Clear
6:35 AM 69.6 °F - 62.4 °F 78% 29.98 in 10.0 mi ESE 11.5 mph - N/A   Clear
6:55 AM 69.6 °F - 62.1 °F 77% 29.99 in 10.0 mi ESE 11.5 mph - N/A   Clear
7:15 AM 69.6 °F - 62.1 °F 77% 29.99 in 10.0 mi ESE 10.4 mph - N/A   Clear
7:35 AM 69.1 °F - 61.7 °F 77% 30.00 in 10.0 mi ESE 10.4 mph - N/A   Clear
7:55 AM 69.1 °F - 61.9 °F 78% 30.00 in 10.0 mi ESE 10.4 mph - N/A   Clear
8:15 AM 69.8 °F - 62.6 °F 78% 30.00 in 10.0 mi ESE 9.2 mph - N/A   Clear
8:35 AM 70.9 °F - 62.8 °F 75% 30.00 in 10.0 mi ESE 12.7 mph - N/A   Clear
8:55 AM 71.6 °F - 63.1 °F 75% 30.01 in 10.0 mi East 15.0 mph - N/A   Clear
9:15 AM 72.5 °F - 63.5 °F 73% 30.02 in 10.0 mi ESE 13.8 mph - N/A   Clear
9:35 AM 73.8 °F - 63.5 °F 70% 30.02 in 10.0 mi ESE 15.0 mph - N/A   Clear
9:55 AM 75.9 °F - 63.5 °F 65% 30.02 in 10.0 mi ESE 15.0 mph - N/A   Clear
10:15 AM 77.0 °F - 62.6 °F 61% 30.02 in 10.0 mi ESE 12.7 mph - N/A   Clear
10:35 AM 78.1 °F - 62.4 °F 58% 30.02 in 10.0 mi ESE 12.7 mph 18.4 mph N/A   Clear
10:55 AM 81.5 °F 82.7 °F 62.6 °F 53% 30.02 in 10.0 mi SE 12.7 mph 17.3 mph N/A   Clear
11:15 AM 82.2 °F 83.0 °F 61.9 °F 50% 30.02 in 10.0 mi SE 10.4 mph - N/A   Clear
11:35 AM 83.1 °F 83.5 °F 61.2 °F 47% 30.02 in 10.0 mi ESE 10.4 mph 18.4 mph N/A   Clear
11:55 AM 83.7 °F 83.9 °F 61.0 °F 46% 30.01 in 10.0 mi East 10.4 mph 17.3 mph N/A   Clear
12:15 PM 83.8 °F 84.1 °F 60.8 °F 46% 30.00 in 10.0 mi ESE 11.5 mph 16.1 mph N/A   Clear
12:35 PM 84.7 °F 84.6 °F 60.1 °F 43% 30.00 in 10.0 mi SE 9.2 mph 16.1 mph N/A   Clear
12:55 PM 84.4 °F 84.6 °F 60.8 °F 45% 29.99 in 10.0 mi SE 11.5 mph 19.6 mph N/A   Scattered Clouds
1:15 PM 85.5 °F 85.2 °F 60.1 °F 42% 29.98 in 10.0 mi SE 11.5 mph 20.7 mph N/A   Clear
1:35 PM 85.6 °F 85.2 °F 59.7 °F 41% 29.98 in 10.0 mi ESE 11.5 mph - N/A   Clear
1:55 PM 85.6 °F 85.2 °F 59.2 °F 41% 29.97 in 10.0 mi SSE 9.2 mph - N/A   Clear
2:15 PM 87.1 °F 86.3 °F 58.3 °F 38% 29.95 in 10.0 mi SSE 6.9 mph - N/A   Clear
2:35 PM 87.8 °F 86.9 °F 58.6 °F 37% 29.94 in 10.0 mi SE 12.7 mph - N/A   Clear
2:55 PM 89.6 °F 88.6 °F 58.6 °F 35% 29.93 in 10.0 mi SSE 10.4 mph 19.6 mph N/A   Clear
3:15 PM 89.8 °F 88.6 °F 58.3 °F 34% 29.92 in 10.0 mi SE 11.5 mph 20.7 mph N/A   Clear
3:35 PM 91.0 °F 90.2 °F 58.8 °F 34% 29.91 in 10.0 mi East 11.5 mph 21.9 mph N/A   Clear
3:55 PM 89.1 °F 88.0 °F 58.5 °F 35% 29.90 in 10.0 mi East 13.8 mph 24.2 mph N/A   Clear
4:15 PM 89.8 °F 88.9 °F 58.6 °F 35% 29.89 in 10.0 mi SE 17.3 mph 21.9 mph N/A   Clear
4:35 PM 89.8 °F 88.9 °F 58.8 °F 35% 29.89 in 10.0 mi ESE 18.4 mph 24.2 mph N/A   Clear
4:55 PM 90.0 °F 89.1 °F 59.0 °F 35% 29.88 in 10.0 mi ESE 17.3 mph 25.3 mph N/A   Clear
5:15 PM 88.7 °F 88.0 °F 59.0 °F 37% 29.88 in 10.0 mi ESE 18.4 mph 24.2 mph N/A   Clear
5:35 PM 89.2 °F 88.4 °F 59.2 °F 36% 29.88 in 10.0 mi ESE 18.4 mph - N/A   Clear
5:55 PM 86.9 °F 86.3 °F 59.2 °F 39% 29.88 in 10.0 mi ESE 15.0 mph 23.0 mph N/A   Clear
6:15 PM 88.0 °F 87.6 °F 59.9 °F 39% 29.87 in 10.0 mi ESE 17.3 mph 23.0 mph N/A   Clear
6:35 PM 85.5 °F 85.2 °F 60.1 °F 42% 29.87 in 10.0 mi ESE 17.3 mph 21.9 mph N/A   Clear
6:55 PM 85.3 °F 85.2 °F 60.3 °F 43% 29.88 in 10.0 mi ESE 15.0 mph 26.5 mph N/A   Scattered Clouds
7:15 PM 84.0 °F 84.4 °F 61.2 °F 46% 29.88 in 10.0 mi East 19.6 mph - N/A   Clear
7:35 PM 83.1 °F 83.7 °F 61.5 °F 48% 29.89 in 10.0 mi ESE 18.4 mph 25.3 mph N/A   Clear
7:55 PM 82.4 °F 83.2 °F 62.1 °F 50% 29.89 in 10.0 mi ESE 17.3 mph 24.2 mph N/A   Clear
8:15 PM 81.5 °F 82.7 °F 62.6 °F 53% 29.90 in 10.0 mi SE 19.6 mph - N/A   Clear
8:35 PM 80.4 °F 81.7 °F 63.0 °F 55% 29.91 in 10.0 mi SE 19.6 mph 25.3 mph N/A   Clear
8:55 PM 79.7 °F - 62.8 °F 56% 29.92 in 10.0 mi SE 17.3 mph 24.2 mph N/A   Clear
9:15 PM 78.3 °F - 62.6 °F 58% 29.93 in 10.0 mi SSE 13.8 mph 19.6 mph N/A   Clear
9:35 PM 77.9 °F - 62.8 °F 60% 29.94 in 10.0 mi SSE 13.8 mph 18.4 mph N/A   Clear
9:55 PM 77.9 °F - 63.1 °F 60% 29.95 in 10.0 mi SSE 10.4 mph - N/A   Clear
10:15 PM 77.2 °F - 63.5 °F 63% 29.95 in 10.0 mi SE 15.0 mph - N/A   Clear
10:35 PM 76.5 °F - 63.0 °F 63% 29.96 in 10.0 mi SE 15.0 mph 23.0 mph N/A   Clear
10:55 PM 76.3 °F - 62.8 °F 63% 29.95 in 10.0 mi SE 16.1 mph - N/A   Clear
11:15 PM 75.4 °F - 62.4 °F 64% 29.96 in 10.0 mi SE 18.4 mph 21.9 mph N/A   Clear
11:35 PM 75.2 °F - 62.6 °F 65% 29.96 in 10.0 mi SE 18.4 mph - N/A   Clear
11:55 PM 74.7 °F - 62.6 °F 66% 29.96 in 10.0 mi SE 11.5 mph 18.4 mph N/A   Clear